Weather History for PASC - September, 2013

Change the Weather History Date:

Friday, September 6, 2013

  Actual Average Record
Temperature  
Mean Temperature 43 °F -  
Max Temperature 54 °F 41 °F 64 °F (1986)
Min Temperature 32 °F 31 °F 26 °F (1991)
Degree Days  
Heating Degree Days 22    
Moisture  
Dew Point 36 °F    
Average Humidity 88    
Maximum Humidity 100    
Minimum Humidity 59    
Precipitation  
Precipitation 0.00 in - - ()
Sea Level Pressure  
Sea Level Pressure 29.86 in    
Wind  
Wind Speed 7 mph (East)    
Max Wind Speed 20 mph    
Max Gust Speed -    
Visibility 8 miles    
Events Fog , Rain    
Averages and records for this station are not official NWS values.
T = Trace of Precipitation, MM = Missing Value Source: NWS Daily Summary

Daily Weather History Graph

Daily Weather History Graph

Search for Another Location

Airport or City:

Trip Planner

Search our weather history database for the weather conditions in past years. The results will help you decide how hot, cold, wet, or windy it might be!

Date:

Astronomy

Sep. 06, 2013 Rise Set
Actual Time 6:31 AM AKDT 9:10 PM AKDT
Civil Twilight 5:20 AM AKDT 10:19 PM AKDT
Nautical Twilight 3:22 AM AKDT 12:12 AM AKDT
Astronomical Twilight Sun does not set Sun does not set
Moon 9:10 AM AKDT (9/6) 8:08 PM AKDT (9/6)
Length of Visible Light 16h 59m
Length of Day
14h 39m
New Moon, 2% of the Moon is Illuminated
Sep 6
New Moon
Sep 12
First Quarter
Sep 19
Full
Sep 26
Last Quarter
Oct 4
New

Hourly Weather History & Observations

Time (AKDT) Temp. Windchill Dew Point Humidity Pressure Visibility Wind Dir Wind Speed Gust Speed Precip Events Conditions
12:12 AM 33.8 °F 27.7 °F 33.8 °F 100% 29.87 in 1.0 mi East 6.9 mph - N/A   Overcast
12:53 AM 33.1 °F 28.7 °F 33.1 °F 100% 29.88 in 1.0 mi East 4.6 mph - N/A   Overcast
1:53 AM 32.0 °F 27.5 °F 32.0 °F 100% 29.89 in 1.0 mi East 4.6 mph - N/A   Overcast
2:29 AM 33.8 °F 27.0 °F 32.0 °F 93% 29.89 in 1.0 mi East 8.1 mph - N/A   Overcast
2:53 AM 32.0 °F 25.6 °F 32.0 °F 100% 29.89 in 7.0 mi East 6.9 mph - N/A   Mostly Cloudy
3:53 AM 32.0 °F 24.8 °F 30.9 °F 96% 29.89 in 10.0 mi ESE 8.1 mph - N/A   Mostly Cloudy
4:53 AM 32.0 °F 24.8 °F 30.9 °F 96% 29.89 in 10.0 mi ESE 8.1 mph - N/A   Mostly Cloudy
5:53 AM 33.1 °F 27.7 °F 33.1 °F 100% 29.89 in 10.0 mi ESE 5.8 mph - N/A   Mostly Cloudy
6:53 AM 34.0 °F 28.8 °F 33.1 °F 96% 29.89 in 10.0 mi ESE 5.8 mph - 0.00 in Rain Light Rain
7:53 AM 34.0 °F 28.8 °F 33.1 °F 96% 29.89 in 10.0 mi East 5.8 mph - 0.00 in   Mostly Cloudy
8:53 AM 37.0 °F 33.3 °F 36.0 °F 96% 29.90 in 10.0 mi South 4.6 mph - N/A   Mostly Cloudy
9:53 AM 44.1 °F 40.8 °F 39.0 °F 82% 29.90 in 10.0 mi SSW 5.8 mph - N/A   Scattered Clouds
10:53 AM 46.0 °F 43.1 °F 39.0 °F 76% 29.91 in 10.0 mi South 5.8 mph - N/A   Scattered Clouds
11:53 AM 48.9 °F - 39.0 °F 69% 29.91 in 10.0 mi Variable 3.5 mph - N/A   Partly Cloudy
12:53 PM 50.0 °F - 39.9 °F 68% 29.89 in 10.0 mi Calm Calm - N/A   Partly Cloudy
1:53 PM 52.0 °F - 39.9 °F 63% 29.88 in 10.0 mi NE 3.5 mph - N/A   Partly Cloudy
2:53 PM 54.0 °F - 39.9 °F 59% 29.87 in 10.0 mi East 6.9 mph - N/A   Partly Cloudy
3:53 PM 53.1 °F - 42.1 °F 66% 29.87 in 10.0 mi East 9.2 mph - N/A   Partly Cloudy
5:53 PM 50.0 °F - 42.1 °F 74% 29.83 in 10.0 mi ENE 11.5 mph - N/A   Partly Cloudy
6:53 PM 46.0 °F 40.6 °F 39.9 °F 79% 29.83 in 10.0 mi ENE 11.5 mph - N/A   Partly Cloudy
7:53 PM 42.1 °F 35.2 °F 37.9 °F 85% 29.81 in 10.0 mi ENE 12.7 mph - N/A   Partly Cloudy
8:53 PM 39.0 °F 31.8 °F 37.0 °F 93% 29.81 in 10.0 mi ENE 11.5 mph - N/A   Partly Cloudy
9:53 PM 37.0 °F 29.3 °F 36.0 °F 96% 29.81 in 10.0 mi ENE 11.5 mph - N/A   Scattered Clouds
10:53 PM 36.0 °F 27.5 °F 35.1 °F 97% 29.80 in 10.0 mi ENE 12.7 mph - N/A   Scattered Clouds
11:11 PM 35.6 °F 25.2 °F 35.6 °F 100% 29.79 in 1.0 mi ENE 18.4 mph - N/A   Mist
11:31 PM 35.6 °F 26.2 °F 35.6 °F 100% 29.79 in 0.5 mi ENE 15.0 mph - N/A Fog Fog
11:53 PM 35.1 °F 24.1 °F 34.0 °F 96% 29.79 in 0.5 mi ENE 19.6 mph - N/A Fog Fog